DECAYED

STARLINK-11334, 61250 (Decayed)

Orbit data source: Space-Track

STARLINK-11334, 61250 was a payload satellite owned by SpaceX/Seattle (US) in LEO that was launched on Wed, 25 Sep 2024 UTC via an FALCON 9 launch vehicle from the Air Force Western Test Range (AFWTR). Payload-class satellites include a variety of spacecraft equipped with specific instruments for various scientific and technological missions. These include communications satellites like Starlink; space stations such as the ISS; scientific satellites like the Hubble; Earth observation satellites from companies like Planet Labs, Umbra, and HawkEye 360; GPS; miniature CubeSats for education and research; and military/defense satellites.

Not visible in the next 10 days
Identifier
61250, 2024-175H
Orbit
Decayed
Country
Flag of USUS
Related business
Manufacturer
SpaceX/Seattle
Mission
Decayed Commercial Communications
Bus & Motor
STARLINK V2MD, Unknown motor
Mass
960 kg wet, ~910 kg dry
Launch date (UTC)
2024-09-25 (1 year ago)
Launch vehicle
FALCON 9
Launch site
Air Force Western Test Range (AFWTR)
Object type
Payload
Rocket body
Debris
Shape & HBR
Box + 2 Pan, 18.1 m
Radar Cross Section
36.964 m², Large (>1 m²)

Expand to show TLE details & history
Last TLE update: 1 month ago

TLE from 1 month ago
0 STARLINK-11334
1 61250U 24175H   25278.88851818  .05371458  11829-4  24475-2 0  9996
2 61250  53.1332  92.6702 0005191 250.2358 109.8122 16.21243383 59145
Epoch: 2025-10-05T21:19Z
TLE epoch observation values (Epoch: 2025-10-05T21:19:27.970Z)
Latitude
-0.00005°
Longitude
118.00397°
Altitude
218.272 km
Speed
7.776 km/s
True Right ascension
06h 10m 40s
True Declination
0° 00' 00"
Sunlit
Object was in daylight at epoch
Visualization orbit readout
Latitude
Unknown
Longitude
Unknown
Altitude
Unknown
Speed
Unknown
Apparent Right ascension
Unknown
Apparent Declination
Unknown
Sunlit
N/A
Visualization observer readout
Local Sidereal Time
07:48:16
Azimuth
Unknown
Elevation
Unknown
Doppler factor
Unknown
Orbital elements
Apogee altitude
219.872 km
Perigee altitude
213.026 km
Semi-major axis
6,594.586 km
Eccentricity
0.00052
Inclination
53.1332°
RAAN
92.6702°
Arg. of periapsis
250.2358°
True anomaly
109.86815°
Mean anomaly
109.8122°
Eccentric anomaly
109.84018°
Mean motion
4.05286 °/min
Orbital period
88.83 mins
BSTAR
0.0024475
Loading maneuver chart data...
Computing Atmospheric mass density...
Loading historical data...
Loading historical data...
Loading historical data...
Loading historical data...
Loading historical data...
Loading historical data...
Loading historical data...

Documentation

Showing up to 5 results
|